Miscellaneous Local Product
Issued by NWS Hastings, NE

Home | Current Version | Previous Version | Text Only | Print | Product List | Glossary Off
Versions: 1 2 3 4 5 6 7 8 9 10 11 12 13 14 15 16 17 18 19 20 21 22 23 24 25 26 27 28 29 30 31 32 33 34 35 36 37 38 39 40 41 42 43 44 45 46 47 48 49 50

021
AXUS43 KGID 220002
MISGRI

GID CWA HOURLY WEATHER ROUNDUP
NATIONAL WEATHER SERVICE HASTINGS NE
700 PM CDT THU MAY 21 2015

NOTE: "FAIR" INDICATES FEW OR NO CLOUDS BELOW 12,000 FEET WITH NO
SIGNIFICANT WEATHER AND/OR OBSTRUCTIONS TO VISIBILITY.

...SOUTH CENTRAL NEBRASKA...

CITY           SKY/WX    TMP DP  RH WIND       PRES   REMARKS
GRAND ISLAND   SUNNY     64  34  32 CALM      30.19F
HASTINGS       SUNNY     64  34  32 SE6       30.19F
KEARNEY        SUNNY     63  34  34 S7        30.18F
ORD            SUNNY     65  35  33 S9        30.17F
YORK           SUNNY     64  39  39 CALM      30.20F
AURORA         SUNNY     65  35  33 SW7       30.19F
LEXINGTON      SUNNY     62  40  43 S6        30.18F
HOLDREGE       SUNNY     63  34  33 S7        30.19F
HEBRON         SUNNY     67  32  27 CALM      30.19F

...NEBRASKA PANHANDLE...

CITY           SKY/WX    TMP DP  RH WIND       PRES   REMARKS
CHADRON        CLOUDY    59  44  57 S12       30.14F
ALLIANCE       CLOUDY    55  44  66 SE13      30.15F
SCOTTSBLUFF    CLOUDY    55  43  63 SE14      30.14F
SIDNEY         CLOUDY    55  44  66 SE13      30.15F

...WESTERN AND NORTH CENTRAL NEBRASKA...

CITY           SKY/WX    TMP DP  RH WIND       PRES   REMARKS
VALENTINE      SUNNY     66  28  24 SE13      30.16F
AINSWORTH      SUNNY     65  32  29 S6        30.17F
ONEILL         SUNNY     68  36  31 SW7       30.18F
BROKEN BOW     SUNNY     64  37  36 S10       30.18F
IMPERIAL       CLOUDY    57  43  59 SE12      30.17F
NORTH PLATTE   CLOUDY    61  40  45 S6        30.17F
MCCOOK         PTSUNNY   62  41  46 SE10      30.17F

...EASTERN NEBRASKA...

CITY           SKY/WX    TMP DP  RH WIND       PRES   REMARKS
NORFOLK        SUNNY     70  36  28 W5        30.16F
SO SIOUX CITY  SUNNY     75  34  22 NW12      30.12F
TEKAMAH        SUNNY     74  37  26 W13       30.13F
COLUMBUS       SUNNY     68  36  30 W6        30.21S
ALBION         SUNNY     67  35  30 SW5       30.18F
OMAHA EPPLEY   MOSUNNY   72  40  31 VRB6      30.14F
OFFUTT AFB     SUNNY     70  39  32 W6        30.14F
MILLARD        SUNNY     71  40  32 W3        30.15F
LINCOLN        SUNNY     70  37  29 W8        30.18F
NEBRASKA CITY  SUNNY     67  32  27 W8        30.17F
BEATRICE       SUNNY     67  38  34 CALM      30.19F
FALLS CITY     SUNNY     68  40  35 NW3       30.17F

...NORTHERN KANSAS...

CITY           SKY/WX    TMP DP  RH WIND       PRES   REMARKS
GOODLAND       CLOUDY    55  44  66 S15       30.17F
HILL CITY      MOSUNNY   61  40  45 SE8       30.18F
NORTON         CLEAR     61  34  36 SE9       30.18S
PHILLIPSBURG   SUNNY     66  39  37 E10       30.19F
SMITH CENTER   SUNNY     63  37  39 S7        30.20S
HAYS           MOSUNNY   61  41  48 SE12      30.19F
RUSSELL        SUNNY     63  43  48 E12       30.18F
CONCORDIA      SUNNY     64  37  36 CALM      30.20F
SALINA         SUNNY     65  40  39 CALM      30.21F
TOPEKA         SUNNY     68  43  40 CALM      30.20F



USA.gov is the U.S. government's official web portal to all federal, state and local government web resources and services.